Regional Weather Roundup
Issued by NWS

Home | Current Version | Previous Version | Graphics & Text | Print | Product List | Glossary On
Versions: 1 2 3 4 5 6 7 8 9 10 11 12 13 14 15 16 17 18 19 20 21 22 23 24 25 26 27 28 29 30 31 32 33 34 35 36 37 38 39 40 41 42 43 44 45 46 47 48 49 50
595
ASUS43 KMKX 250100
RWRWI

WISCONSIN REGIONAL WEATHER ROUNDUP
NATIONAL WEATHER SERVICE MILWAUKEE/SULLIVAN WI
800 PM CDT SUN JUL 24 2016

NOTE: "FAIR" INDICATES FEW OR NO CLOUDS BELOW 12,000 FEET WITH NO
SIGNIFICANT WEATHER AND/OR OBSTRUCTIONS TO VISIBILITY.

WIZ001-002-006>008-014>016-023>028-250200-
NORTHWEST WISCONSIN

CITY           SKY/WX    TMP DP  RH WIND       PRES   REMARKS
SUPERIOR ARPT  PTCLDY    77  62  61 W6        29.85R
ASHLAND        CLEAR     77  62  59 W8        29.86R
HAYWARD        PTCLDY    76  62  62 VRB6      29.90R
SIREN          CLEAR     79  59  50 W7        29.91S HX  80
CUMBERLAND     PTCLDY    75  61  60 W9        29.92S
RICE LAKE      PTCLDY    77  62  60 W7        29.92S
CHETEK         PTCLDY    76  64  66 MISG      29.91S
LADYSMITH      PTCLDY    75  63  65 W6        29.92S
EAU CLAIRE     NOT AVBL
MENOMONIE      CLOUDY    81  63  54 W10       29.90S HX  82
NEW RICHMOND   PTCLDY    78  60  55 W9G17     29.93R
OSCEOLA        CLEAR     79  60  52 W8G17     29.95R HX  80
$$

WIZ003>005-009-010-017-018-250200-
NORTH CENTRAL WISCONSIN

CITY           SKY/WX    TMP DP  RH WIND       PRES   REMARKS
MANITOWISH WTR PTCLDY    73  62  68 W6        29.89R
ARBOR VITAE    PTCLDY    77  64  63 W8        29.89R
WOODRUFF       PTCLDY    77  64  63 W8        29.89R
RHINELANDER    CLEAR     75  63  66 W7        29.89R
EAGLE RIVER    PTCLDY    76  60  56 W8G16     29.87R
LAND O LAKES   CLEAR     76  60  57 NW7G16    29.88R
PHILLIPS       CLEAR     73  64  72 W3        29.90R
TOMAHAWK       PTCLDY    74  62  67 W6        29.90R
MEDFORD        CLEAR     74  62  66 W7        29.90S
MERRILL        PTCLDY    77  65  67 NW8       29.88S
$$

WIZ029-030-035-036-043>047-250200-
CENTRAL WISCONSIN

CITY           SKY/WX    TMP DP  RH WIND       PRES   REMARKS
WAUSAU         CLEAR     78  63  59 W13       29.86S HX  80
MOSINEE        CLEAR     77  64  65 W10       29.89S
MARSHFIELD     CLEAR     77  63  61 NW9       29.89S
STEVENS POINT  PTCLDY    79  65  61 W7        29.88S HX  81
WAUPACA        CLEAR     84  66  53 W7        29.86R HX  86
WAUTOMA        PTCLDY    81  68  64 W8        29.86F HX  84
WISC RAPIDS    CLEAR     78  63  59 NW8       29.88F HX  80
CAMP DOUGLAS   NOT AVBL
$$

WIZ011>013-019>022-031-037>040-048>050-250200-
NORTHEAST WISCONSIN

CITY           SKY/WX    TMP DP  RH WIND       PRES   REMARKS
ANTIGO         CLEAR     76  65  68 W3        29.88S
SHAWANO        MOCLDY    83  66  56 W7        29.84S HX  85
OCONTO         PTCLDY    82  69  65 W10       29.81R HX  85
STURGEON BAY   PTCLDY    81  72  74 W10       29.81R HX  85
GREEN BAY      PTCLDY    79  69  71 W8        29.82R HX  81
MANITOWOC      NOT AVBL
APPLETON       PTCLDY    79  64  61 W6        29.84S HX  81
CLINTONVILLE   PTCLDY    81  64  57 W6        29.84S HX  82
OSHKOSH        PTCLDY    81  67  62 W8        29.85R HX  83
$$

WIZ032>034-041-042-053>061-250200-
SOUTHWEST WISCONSIN

CITY           SKY/WX    TMP DP  RH WIND       PRES   REMARKS
LA CROSSE      MOCLDY    81  66  60 NW13      29.89S HX  83
SPARTA         CLOUDY    79  66  64 NW5       29.90F HX  81
VIROQUA        MOCLDY    76  65  68 NW5       29.91F
BOSCOBEL       MOCLDY    80  68  66 SW3       29.89F HX  83
PRAIRIE DU CHI PTCLDY    80  65  60 W7        29.89F HX  82
PLATTEVILLE    CLOUDY    77  69  78 W5        29.93R
$$

WIZ056-057-062-063-064-067-068-250200-
SOUTH CENTRAL WISCONSIN

CITY           SKY/WX    TMP DP  RH WIND       PRES   REMARKS
REEDSBURG      CLEAR     78  67  68 W7        29.89S HX  81
BARABOO/DELLS  CLEAR     79  65  62 NW5       29.89S HX  81
LONE ROCK      NOT AVBL
MINERAL POINT  PTCLDY    79  68  69 W5        29.92S HX  81
MADISON        MOCLDY    82  66  58 VRB5      29.89R HX  84
MIDDLETON      CLEAR     82  69  63 NW8       29.90R HX  85
WATERTOWN      MOCLDY    84  73  69 NW12      29.88R HX  90
MONROE         CLEAR     81  68  65 NW8       29.92R HX  83
JANESVILLE     MOCLDY    88  75  66 NW13      29.88R HX  97
$$

WIZ051-052-058>065-066-070>072-250200-
SOUTHEAST WISCONSIN

CITY           SKY/WX    TMP DP  RH WIND       PRES   REMARKS
MILWAUKEE      CLOUDY    91  76  61 W16G25    29.84R HX 103
WAUKESHA       PTCLDY    82  73  74 W12       29.87R HX  88
MILWAUKEE/TIMM CLEAR     88  70  55 W13       29.85R HX  92
RACINE         CLOUDY    85  79  82 W5        29.84R HX  98
BURLINGTON     PTCLDY    87  78  74 W7        29.87R HX 100
KENOSHA        CLOUDY    87  78  74 W14       29.86R HX 100
FOND DU LAC    PTCLDY    82  68  62 W7        29.86R HX  85
SHEBOYGAN      PTCLDY    83  74  74 NW6       29.83R HX  89
WEST BEND      CLEAR     86  72  62 W9        29.85R HX  92
JUNEAU         PTCLDY    83  71  68 W7        29.88R HX  88
$$

LSZ147-162-250200-
LAKE SUPERIOR

STATION/POSITION TIME  TEMP    WIND        PRES    WAVE
                       AIR SEA DIR/SP/G            HT/PER
                 (UTC) (F)     (DEG/KT/KT) (MB)    (FT/S)
W MID LAKE BUOY  2350   64 58  250/ 12/ 14 1007.9R   2/ 4
DEVILS ISLAND    0000   69     240/ 17/ 19 1009.2R
SAXON HARBOR     0040   80     260/  4/  8 1010.2S
$$

LMZ867-665-643>646-250200-
LAKE MICHIGAN

STATION/POSITION TIME  TEMP    WIND        PRES    WAVE
                       AIR SEA DIR/SP/G            HT/PER
                 (UTC) (F)     (DEG/KT/KT) (MB)    (FT/S)
CHAMBERS ISLAND  0000   81     180/  3/  6 1008.1R
S GREEN BAY BUOY 0000   79 75  250/  8/ 10   N/A
N MID LAKE BUOY  2350   70 68  210/ 12/ 14 1007.4R   4/ 6
NORTHPORT PIER   0000   80     170/  3/  6 1008.1R
KEWAUNEE LAKESHO 0000   81                   N/A
SHEBOYGAN LAKESH 0000   87     280/  7/  9 1009.1R
PORT WASHINGTON  0000   91     290/  6/ 15 1009.8S
MILWAUKEE LAKESH 0010   89     280/  9/ 16   N/A
S MID LAKE BUOY  2350   76 72  160/ 10/ 12 1008.8F   2/ 4
KENOSHA   LAKESH 0000   91     250/ 10/ 16 1009.8R
$$

TC  - TEMPERATURE IN CELSIUS
VSB - VISIBILITY IN STATUTE MILES
WCI - WIND CHILL INDEX
HX  - HEAT INDEX





USA.gov is the U.S. government's official web portal to all federal, state and local government web resources and services.